Ord, NE

8:04 AM CDT on May 28, 2017 (GMT -0500)
Sharp

Weather History for KODX - July, 2013

Change the Weather History Date:

Wednesday, July 24, 2013

  Actual Average Record
Temperature  
Mean Temperature 71 °F 75 °F  
Max Temperature 85 °F 88 °F 99 °F (2005)
Min Temperature 57 °F 62 °F 52 °F (2004)
Degree Days  
Heating Degree Days 0 0  
Month to date heating degree days 1 0  
Since 1 June heating degree days 48 37  
Since 1 July heating degree days 1 0  
Cooling Degree Days 6 10  
Month to date cooling degree days 252 227  
Year to date cooling degree days 465 430  
Since 1 June cooling degree days 418 389  
Growing Degree Days 20 (Base 50)    
Moisture  
Dew Point 61 °F    
Average Humidity 74    
Maximum Humidity 100    
Minimum Humidity 47    
Precipitation  
Precipitation 0.27 in 0.08 in 2.06 in (1915)
Month to date precipitation 3.15 2.01  
Year to date precipitation 15.22 14.79  
Sea Level Pressure  
Sea Level Pressure 30.05 in    
Wind  
Wind Speed 3 mph (SE)    
Max Wind Speed 47 mph    
Max Gust Speed 60 mph    
Visibility 8 miles    
Events Fog , Rain , Thunderstorm    
T = Trace of Precipitation, MM = Missing Value Source: NWS Daily Summary

Daily Weather History Graph

Daily Weather History Graph

Search for Another Location

Airport or City:

Trip Planner

Search our weather history database for the weather conditions in past years. The results will help you decide how hot, cold, wet, or windy it might be!

Date:

Astronomy

Jul. 24, 2013 Rise Set
Actual Time 6:22 AM CDT 9:01 PM CDT
Civil Twilight 5:50 AM CDT 9:33 PM CDT
Nautical Twilight 5:10 AM CDT 10:13 PM CDT
Astronomical Twilight 4:24 AM CDT 10:58 PM CDT
Moon 10:04 PM CDT (7/24) 8:47 AM CDT (7/24)
Length of Visible Light 15h 42m
Length of Day
14h 38m
Waning Gibbous, 94% of the Moon is Illuminated
Jul 24
Waning Gibbous
Jul 29
Last Quarter
Aug 6
New
Aug 14
First Quarter
Aug 20
Full

Hourly Weather History & Observations

Time (CDT) Temp. Heat Index Dew Point Humidity Pressure Visibility Wind Dir Wind Speed Gust Speed Precip Events Conditions
12:53 AM 64.0 °F - 60.1 °F 87% 30.06 in 10.0 mi NE 3.5 mph - N/A   Clear
1:53 AM 60.1 °F - 59.0 °F 96% 30.06 in 10.0 mi NNW 3.5 mph - N/A   Clear
2:53 AM 60.1 °F - 57.9 °F 93% 30.05 in 10.0 mi SW 4.6 mph - N/A   Clear
3:53 AM 57.9 °F - 57.0 °F 97% 30.06 in 10.0 mi Calm Calm - N/A   Clear
4:53 AM 57.0 °F - 55.9 °F 96% 30.08 in 10.0 mi NW 3.5 mph - N/A   Clear
5:53 AM 57.0 °F - 55.9 °F 96% 30.09 in 8.0 mi NW 3.5 mph - N/A   Clear
6:53 AM 57.0 °F - 55.9 °F 96% 30.09 in 8.0 mi Calm Calm - N/A   Clear
7:53 AM 61.0 °F - 59.0 °F 93% 30.10 in 9.0 mi Calm Calm - N/A   Clear
8:53 AM 66.0 °F - 62.1 °F 87% 30.10 in 10.0 mi Calm Calm - N/A   Clear
9:53 AM 71.1 °F - 61.0 °F 70% 30.10 in 10.0 mi Calm Calm - N/A   Clear
10:53 AM 73.9 °F - 63.0 °F 68% 30.10 in 10.0 mi South 5.8 mph - N/A   Clear
11:53 AM 77.0 °F - 63.0 °F 62% 30.10 in 10.0 mi SSW 4.6 mph - N/A   Clear
12:53 PM 80.1 °F 81.5 °F 63.0 °F 56% 30.08 in 10.0 mi Calm Calm - N/A   Partly Cloudy
1:53 PM 80.1 °F 81.1 °F 61.0 °F 52% 30.07 in 10.0 mi SW 5.8 mph - N/A   Clear
2:53 PM 82.0 °F 83.1 °F 63.0 °F 52% 30.05 in 10.0 mi Calm Calm - N/A   Clear
3:53 PM 84.0 °F 84.5 °F 62.1 °F 47% 30.01 in 10.0 mi South 5.8 mph - N/A   Clear
4:53 PM 82.9 °F 83.3 °F 61.0 °F 47% 30.00 in 10.0 mi SW 3.5 mph - N/A   Clear
5:53 PM 82.9 °F 84.0 °F 63.0 °F 51% 29.96 in 10.0 mi SSW 12.7 mph - N/A Thunderstorm Clear
6:14 PM 69.8 °F - 62.6 °F 78% 30.04 in 1.8 mi NNE 39.1 mph 59.8 mph 0.06 in Rain , Thunderstorm Light Thunderstorms and Rain
6:16 PM 66.2 °F - 62.6 °F 88% 30.05 in 0.5 mi NE 43.7 mph 59.8 mph 0.18 in Fog , Rain , Thunderstorm Light Thunderstorms and Rain
6:23 PM 64.4 °F - 62.6 °F 94% 30.06 in 0.2 mi East 29.9 mph 59.8 mph 0.27 in Fog , Rain , Thunderstorm Heavy Thunderstorms and Rain
6:28 PM 62.6 °F - 62.6 °F 100% 30.07 in 1.5 mi East 21.9 mph 42.6 mph 0.27 in Rain , Thunderstorm Light Thunderstorms and Rain
6:30 PM 62.6 °F - 60.8 °F 94% 30.06 in 4.0 mi East 21.9 mph 42.6 mph 0.27 in Rain , Thunderstorm Light Thunderstorms and Rain
6:53 PM 66.9 °F - 59.0 °F 76% 30.04 in 10.0 mi SE 9.2 mph 21.9 mph 0.27 in Thunderstorm Scattered Clouds
7:01 PM 66.2 °F - 60.8 °F 83% 30.03 in 10.0 mi SE 12.7 mph 16.1 mph N/A   Mostly Cloudy
7:31 PM 69.8 °F - 62.6 °F 78% 30.02 in 10.0 mi South 8.1 mph - N/A Thunderstorm Mostly Cloudy
7:53 PM 69.1 °F - 64.0 °F 84% 30.02 in 10.0 mi ENE 10.4 mph - N/A Thunderstorm Overcast
8:15 PM 69.8 °F - 62.6 °F 78% 30.01 in 10.0 mi SSE 8.1 mph - N/A   Mostly Cloudy
8:53 PM 70.0 °F - 62.1 °F 76% 29.99 in 10.0 mi South 5.8 mph - N/A   Mostly Cloudy
9:53 PM 69.1 °F - 63.0 °F 81% 30.01 in 10.0 mi East 3.5 mph - N/A   Scattered Clouds
10:53 PM 66.9 °F - 64.0 °F 90% 30.01 in 10.0 mi Calm Calm - N/A   Partly Cloudy
11:53 PM 66.9 °F - 64.0 °F 90% 30.02 in 10.0 mi Calm Calm - N/A   Clear